[[{"header":{"parameterUnit":"m.s-1","parameterCategory":2,"la1":30.2991,"la2":30.254,"lo1":-89.0895,"lo2":-89.0444,"dy":0.0017,"dx":0.0017,"nx":28,"ny":28,"refTime":"2025-03-31T21:00:00:Z","depth":"0","parameterNumber":2,"parameterNumberName":"U-component_of_CURRENTS"},"data":[0,0,0,0,0,0,0,0,0,0,0,0,0,0,0,0,0,0,0,0,0,0,0,0,0,0,0,0,0,0,0,0,0,0,0,0,0,0,0,0,0,0,0,0,0,0,0,0,0,0,0,0,0,0,0,0,0,0,0.2544,0.2544,0,0.2563,0.2563,0.2563,0.2554,0.2553,0.2553,0.2553,0.2548,0.2548,0.2548,0,0,0,0,0,0,0,0,0,0,0,0,0,0.251,0.2511,0.2544,0.2544,0.2545,0.2563,0.2563,0.2563,0.2554,0.2553,0.2553,0.2553,0.2548,0.2548,0.2548,0,0,0,0,0,0,0,0,0,0,0,0,0,0.2525,0.2511,0.2544,0.2544,0.2544,0.2563,0.2563,0.2563,0.2554,0.2553,0.2553,0.2552,0.2547,0.2548,0.2548,0.2559,0,0,0.2549,0.2549,0,0,0,0,0,0,0,0,0.2524,0.2526,0.2543,0.2544,0.2544,0.2557,0.2549,0.2561,0.2554,0.2548,0.2553,0.2552,0.255,0.255,0.2552,0.2558,0.2558,0.2549,0.2549,0.2549,0.2549,0,0,0,0,0,0,0,0.2523,0.2525,0.2549,0.2544,0.2544,0.2547,0.2548,0.2551,0.255,0.2549,0.2548,0.2554,0.255,0.2552,0.2552,0.2558,0.2549,0.2549,0.2549,0.2549,0.2599,0.2601,0,0,0,0,0,0,0.2525,0.2524,0.2549,0.255,0.2535,0.2548,0.2549,0.2552,0.255,0.255,0.2554,0.2553,0.2552,0.2552,0.2552,0.2583,0.2549,0.2549,0.2549,0.2598,0.26,0.2601,0,0,0,0,0,0,0.2524,0.2526,0.2548,0.2539,0.2542,0.2549,0.2552,0.2552,0.2558,0.2555,0.2554,0.256,0.2552,0.2552,0.2563,0.2581,0.2549,0.2549,0.2597,0.2599,0.26,0.2632,0,0,0,0,0,0,0.2523,0.2526,0.2529,0.2539,0.2543,0.2564,0.2553,0.2553,0.2563,0.2562,0.2559,0.2558,0.2551,0.2563,0.2564,0.2581,0.255,0.2595,0.2598,0.26,0.263,0.2635,0.2639,0,0,0,0,0,0.2521,0.2526,0.2529,0.2532,0.2546,0.2564,0.2567,0.2568,0.2564,0.257,0.2571,0.2558,0.2578,0.2564,0.2565,0.2582,0.2594,0.2597,0.26,0.2627,0.2634,0.2639,0,0,0,0,0,0,0.2512,0.2527,0.2529,0.2538,0.2553,0.2564,0.2571,0.2573,0.2579,0.2578,0.257,0.257,0.2592,0.2584,0.2569,0.2606,0.2586,0.2589,0.2607,0.2613,0.2618,0.2625,0.255,0,0,0,0,0,0.2512,0.2519,0.2537,0.2544,0.2553,0.2564,0.2571,0.2575,0.2583,0.2585,0.2584,0.2589,0.2604,0.2605,0.2615,0.2628,0.264,0.2643,0.2647,0.2651,0.2659,0.2698,0.2707,0.261,0.261,0.261,0,0,0.2509,0.252,0.2523,0.2543,0.2553,0.2571,0.2566,0.2583,0.2597,0.2584,0.26,0.2608,0.2614,0.2635,0.2643,0.2628,0.2686,0.2655,0.2658,0.2664,0.2702,0.2712,0.272,0.2612,0.2611,0.2611,0,0,0.251,0.252,0.2527,0.2544,0.2567,0.2578,0.2585,0.2602,0.261,0.2628,0.263,0.265,0.2658,0.2672,0.2679,0.2717,0.2716,0.272,0.2742,0.278,0.2789,0.2796,0.2822,0.2832,0.2715,0.2715,0.2715,0,0.2505,0.2518,0.2533,0.255,0.2566,0.2583,0.2601,0.2616,0.2633,0.265,0.2637,0.268,0.2679,0.272,0.2731,0.2729,0.2746,0.2717,0.2787,0.2794,0.2801,0.2826,0.2836,0.2717,0.2717,0.2717,0.2716,0,0.2514,0.2528,0.2537,0.2563,0.2585,0.2604,0.2632,0.2654,0.2665,0.2681,0.2723,0.2729,0.2755,0.276,0.2753,0.2807,0.2803,0.2793,0.277,0.2813,0.2837,0.2847,0.272,0.2719,0.2718,0.2718,0,0,0.2491,0.2533,0.2536,0.2549,0.2595,0.2608,0.2651,0.2693,0.2721,0.2742,0.2781,0.2807,0.2816,0.2826,0.2828,0.2853,0.2911,0.2842,0.2843,0.2865,0.2994,0.298,0.2989,0.2915,0.2917,0.2918,0.299,0,0.2491,0.2516,0.2546,0.2573,0.259,0.2634,0.267,0.2713,0.2748,0.2789,0.2819,0.2852,0.284,0.2854,0.2883,0.2912,0.294,0.2893,0.2952,0.2954,0.2934,0.3001,0.2924,0.2981,0.3,0.3001,0.3002,0,0.2487,0.2506,0.2531,0.2578,0.2591,0.2612,0.268,0.2716,0.2793,0.282,0.2873,0.2899,0.2955,0.2927,0.3006,0.2978,0.2992,0.3004,0.3007,0.2991,0.2959,0.2942,0.2998,0.2942,0.3017,0.3016,0.3015,0,0.2449,0.2494,0.251,0.2526,0.2584,0.2608,0.2645,0.2723,0.2768,0.2845,0.2888,0.2953,0.2995,0.3031,0.307,0.3043,0.3151,0.3114,0.3115,0.3113,0.3058,0.3049,0.3064,0.3168,0.3168,0.3168,0.3167,0,0.2433,0.2444,0.2488,0.2494,0.2523,0.2577,0.2623,0.2677,0.2766,0.2821,0.2897,0.2958,0.3025,0.3096,0.3105,0.3158,0.3186,0.3141,0.3142,0.3067,0.3058,0.3013,0.298,0.317,0.317,0.3169,0.3169,0,0.2387,0.2416,0.2435,0.2486,0.2502,0.2523,0.2605,0.2643,0.2736,0.2816,0.2846,0.2986,0.3081,0.3145,0.3218,0.3211,0.317,0.3251,0.3157,0.3146,0.3071,0.3042,0.2938,0.2844,0.3261,0.3261,0.3261,0,0.2364,0.2368,0.2413,0.2422,0.2441,0.2481,0.2512,0.2609,0.2664,0.2826,0.2866,0.3006,0.309,0.3218,0.3243,0.3284,0.3181,0.322,0.3151,0.3079,0.3048,0.2905,0.2821,0.3089,0.3088,0.3087,0.3086,0,0.2325,0.2341,0.2356,0.2374,0.2395,0.2423,0.2481,0.2519,0.264,0.2722,0.2845,0.2932,0.3095,0.3134,0.3215,0.3222,0.308,0.32,0.3154,0.2949,0.2766,0.2671,0.3023,0.3077,0.3078,0.3079,0.3079,0.3079,0.2293,0.2293,0.2311,0.2321,0.234,0.2349,0.2345,0.2422,0.2492,0.2589,0.2743,0.2837,0.3004,0.3122,0.3107,0.3076,0.3017,0.3005,0.2987,0.2857,0.2725,0.306,0.3096,0.3096,0.3097,0.3098,0.3099,0,0.2247,0.2248,0.2256,0.2251,0.2233,0.2273,0.2308,0.2291,0.2321,0.2465,0.2556,0.273,0.2814,0.2918,0.2985,0.2894,0.2726,0.2821,0.2608,0.2543,0.2886,0.284,0.2788,0.2788,0.2788,0.2788,0.2788,0.2788,0.2223,0.2203,0.2199,0.2141,0.2134,0.2075,0.207,0.2068,0.214,0.2221,0.2322,0.2454,0.2728,0.2885,0.2852,0.2773,0.2543,0.244,0.2396,0.2672,0.2687,0.2701,0.2651,0.2559,0.2559,0.1948,0.1943,0.194]},{"header":{"parameterUnit":"m.s-1","parameterCategory":2,"la1":30.2991,"la2":30.254,"lo1":-89.0895,"lo2":-89.0444,"dy":0.0017,"dx":0.0017,"nx":28,"ny":28,"refTime":"2025-03-31T21:00:00:Z","depth":"0","parameterNumber":3,"parameterNumberName":"V-component_of_CURRENTS"},"data":[0,0,0,0,0,0,0,0,0,0,0,0,0,0,0,0,0,0,0,0,0,0,0,0,0,0,0,0,0,0,0,0,0,0,0,0,0,0,0,0,0,0,0,0,0,0,0,0,0,0,0,0,0,0,0,0,0,0,0.0146,0.0146,0,0.0094,0.0093,0.0093,0.0056,0.0056,0.0056,0.0056,-0.0014,-0.0015,-0.0017,0,0,0,0,0,0,0,0,0,0,0,0,0,0.0173,0.0173,0.0146,0.0146,0.0145,0.0094,0.0093,0.0092,0.0056,0.0056,0.0056,0.0056,-0.0013,-0.0015,-0.0017,0,0,0,0,0,0,0,0,0,0,0,0,0,0.0143,0.0173,0.0146,0.0123,0.012,0.0094,0.0093,0.0092,0.0057,0.0056,0.0056,0.0056,-0.0012,-0.0015,-0.0018,-0.0031,0,0,-0.0026,-0.0027,0,0,0,0,0,0,0,0,0.0145,0.0142,0.0126,0.0124,0.0121,0.0083,0.0077,0.0051,0.0057,0.0079,0.0056,0.0056,0.0018,0.0013,0.0001,-0.0034,-0.0037,-0.0026,-0.0028,-0.0029,-0.0029,0,0,0,0,0,0,0,0.0147,0.0144,0.0124,0.0126,0.0123,0.01,0.0096,0.0072,0.0048,0.0077,0.0074,0.0072,0.0017,0.0004,-0.0001,-0.0038,-0.0026,-0.0028,-0.003,-0.0031,-0.008,-0.008,0,0,0,0,0,0,0.016,0.0146,0.0125,0.0122,0.0135,0.01,0.0096,0.0094,0.0049,0.0042,0.0072,0.007,0.0009,0.0003,-0.0003,-0.0002,-0.0029,-0.0031,-0.0033,-0.0081,-0.008,-0.008,0,0,0,0,0,0,0.0161,0.0159,0.0127,0.0134,0.0129,0.0101,0.0099,0.0093,0.0084,0.0046,0.0039,0.007,0.0008,0.0001,-0.0016,-0.0006,-0.0032,-0.0035,-0.0081,-0.0081,-0.008,-0.0013,0,0,0,0,0,0,0.0162,0.0159,0.0162,0.0135,0.0129,0.0121,0.0099,0.0092,0.0084,0.0081,0.0041,0.0034,0.0007,-0.0012,-0.0019,-0.001,-0.0037,-0.0081,-0.0081,-0.008,-0.0015,-0.001,-0.0006,0,0,0,0,0,0.0163,0.0172,0.0162,0.016,0.0134,0.0122,0.0117,0.0094,0.0084,0.0085,0.0059,0.0036,-0.0014,-0.0014,-0.0022,-0.0014,-0.0082,-0.0081,-0.008,-0.0017,-0.0011,-0.0006,0,0,0,0,0,0,0.0186,0.0169,0.0158,0.0161,0.0146,0.0117,0.0116,0.01,0.008,0.0078,0.004,0.0031,0.002,-0.0007,-0.0006,-0.0027,-0.0052,-0.0053,-0.0001,0.0004,0.0009,0.0025,-0.0039,0,0,0,0,0,0.0193,0.0195,0.0173,0.0176,0.0172,0.0144,0.0136,0.0123,0.0102,0.0092,0.0065,0.0036,0.0015,0.0003,-0.0022,-0.0033,-0.006,-0.0034,-0.0029,-0.0024,-0.0017,-0.0051,-0.0048,-0.0078,-0.0078,-0.0078,0,0,0.0202,0.0194,0.0194,0.0181,0.0167,0.0171,0.0139,0.0134,0.0139,0.0088,0.0084,0.0052,0.0015,0.0005,-0.0003,-0.0015,-0.003,-0.0024,-0.0019,-0.0015,-0.005,-0.0047,-0.0044,-0.0078,-0.0078,-0.0078,0,0,0.0228,0.0215,0.0228,0.022,0.0207,0.0193,0.0196,0.0171,0.0161,0.015,0.0118,0.0095,0.0059,0.0037,0.0021,0.0037,-0.0003,0.0026,0.0065,0.0033,0.0036,0.0037,0.0012,0.0011,0.003,0.003,0.003,0,0.0241,0.0254,0.0229,0.0241,0.0242,0.0209,0.0226,0.0211,0.0184,0.0181,0.0159,0.0109,0.0075,0.0066,0.007,0.0049,0.0025,0.0049,0.0041,0.0042,0.0042,0.0016,0.0014,0.0033,0.0033,0.0032,0.0032,0,0.0276,0.0287,0.0295,0.03,0.0297,0.0306,0.0287,0.0284,0.0264,0.0244,0.0226,0.0176,0.0148,0.0131,0.0104,0.0096,0.0076,0.0051,0.003,0.005,0.002,0.0017,0.0038,0.0037,0.0036,0.0035,0,0,0.0307,0.0319,0.0323,0.034,0.0331,0.0337,0.0346,0.0345,0.0359,0.0315,0.0322,0.027,0.0236,0.0216,0.0175,0.0144,0.0125,0.0105,0.0101,0.0087,0.006,0.0052,0.0047,0.0098,0.0098,0.0098,0.004,0,0.0345,0.0386,0.0378,0.0418,0.0439,0.0418,0.0435,0.0428,0.0407,0.0403,0.0345,0.033,0.0271,0.026,0.022,0.0153,0.0119,0.0143,0.0036,0.0033,0.0029,0.0044,0.0073,0.0024,0.0036,0.0036,0.0035,0,0.0387,0.041,0.0455,0.0491,0.0498,0.0514,0.0536,0.0547,0.0528,0.0508,0.0472,0.0426,0.038,0.0322,0.0217,0.0235,0.0155,0.0094,0.009,0.0058,0.0019,0.0003,0.0017,-0.0113,0.003,0.003,0.0031,0,0.0429,0.0469,0.0509,0.0518,0.0545,0.0564,0.058,0.0577,0.0605,0.0572,0.0579,0.0505,0.0482,0.0369,0.0244,0.0229,0.0125,0.0086,0.0002,0.0001,-0.0008,-0.001,-0.0126,0.0006,0.0006,0.0006,0.0006,0,0.0475,0.0509,0.0533,0.0554,0.0616,0.0614,0.0668,0.067,0.0686,0.0728,0.0637,0.0654,0.0493,0.0416,0.0278,0.0142,0.0149,0.0015,-0.0013,0.0016,0.0018,-0.0124,-0.0216,0.0004,0.0005,0.0005,0.0005,0,0.0513,0.0525,0.0579,0.0618,0.0635,0.0679,0.074,0.0786,0.078,0.083,0.0828,0.0775,0.0673,0.0507,0.0335,0.0205,-0.0023,0.0004,0.0055,0.0033,-0.0169,-0.0258,-0.0424,-0.0499,-0.0097,-0.0097,-0.0098,0,0.0536,0.0566,0.0626,0.0667,0.0685,0.0745,0.0799,0.0827,0.0885,0.0913,0.0957,0.0881,0.0854,0.0601,0.0354,0.0119,-0.0033,-0.0019,-0.005,-0.0171,-0.0292,-0.0358,-0.0414,-0.0037,-0.0037,-0.0037,-0.0037,0,0.0584,0.0601,0.0645,0.0727,0.0788,0.0867,0.0945,0.101,0.1054,0.1103,0.1164,0.1147,0.0915,0.0706,0.0378,0.0205,-0.0117,-0.0025,-0.0166,-0.0266,-0.0331,-0.0418,-0.0009,-0.0036,-0.0036,-0.0036,-0.0036,-0.0036,0.062,0.066,0.0717,0.0797,0.0874,0.0979,0.1051,0.115,0.126,0.1352,0.1334,0.1349,0.1036,0.0604,0.0342,-0.0094,-0.0131,-0.0223,-0.0323,-0.038,-0.0449,-0.0033,-0.0083,-0.0084,-0.0084,-0.0084,-0.0084,0,0.0667,0.0711,0.0787,0.0882,0.0971,0.1006,0.1147,0.1229,0.1368,0.1479,0.1536,0.1434,0.1031,0.061,0.0018,-0.0313,-0.045,-0.0503,-0.0594,-0.0641,-0.0275,-0.0267,-0.0338,-0.0338,-0.0337,-0.0337,-0.0337,-0.0337,0.0693,0.0765,0.0799,0.0942,0.1013,0.1137,0.1219,0.1353,0.147,0.1617,0.1678,0.1705,0.1427,0.0319,-0.041,-0.0593,-0.0845,-0.0908,-0.1049,-0.0796,-0.0777,-0.0759,-0.0771,-0.0947,-0.0948,-0.1349,-0.1354,-0.1357]}],[{"header":{"parameterUnit":"m.s-1","parameterCategory":2,"la1":30.2991,"la2":30.254,"lo1":-89.0895,"lo2":-89.0444,"dy":0.0017,"dx":0.0017,"nx":28,"ny":28,"refTime":"2025-03-31T21:00:00:Z","depth":"2","parameterNumber":2,"parameterNumberName":"U-component_of_CURRENTS"},"data":[0,0,0,0,0,0,0,0,0,0,0,0,0,0,0,0,0,0,0,0,0,0,0,0,0,0,0,0,0,0,0,0,0,0,0,0,0,0,0,0,0,0,0,0,0,0,0,0,0,0,0,0,0,0,0,0,0,0,0.2437,0.2438,0,0.2456,0.2456,0.2456,0.2454,0.2454,0.2454,0.2454,0.2458,0.2458,0.2458,0,0,0,0,0,0,0,0,0,0,0,0,0,0.2404,0.2404,0.2437,0.2438,0.2438,0.2456,0.2456,0.2456,0.2454,0.2454,0.2454,0.2454,0.2458,0.2458,0.2458,0,0,0,0,0,0,0,0,0,0,0,0,0,0.2418,0.2405,0.2437,0.2441,0.2441,0.2456,0.2456,0.2456,0.2454,0.2454,0.2454,0.2454,0.2458,0.2458,0.2458,0.2464,0,0,0.2459,0.2459,0,0,0,0,0,0,0,0,0.2417,0.2419,0.244,0.2441,0.2441,0.2454,0.2446,0.2459,0.2454,0.2447,0.2454,0.2453,0.2457,0.2457,0.2458,0.2464,0.2464,0.2459,0.246,0.246,0.246,0,0,0,0,0,0,0,0.2416,0.2419,0.2443,0.244,0.2441,0.2443,0.2444,0.2448,0.2451,0.2448,0.2448,0.2453,0.2457,0.2458,0.2458,0.2464,0.2459,0.246,0.246,0.246,0.2515,0.2516,0,0,0,0,0,0,0.2418,0.2418,0.2442,0.2444,0.2431,0.2444,0.2445,0.2449,0.2451,0.2452,0.2453,0.2453,0.2458,0.2458,0.2459,0.2496,0.246,0.246,0.246,0.2513,0.2515,0.2516,0,0,0,0,0,0,0.2417,0.242,0.2442,0.2433,0.2436,0.2445,0.2448,0.2449,0.2459,0.2456,0.2456,0.2464,0.2457,0.2458,0.2474,0.2495,0.246,0.246,0.2512,0.2514,0.2516,0.2551,0,0,0,0,0,0,0.2416,0.242,0.2425,0.2433,0.2436,0.2458,0.2449,0.245,0.2463,0.2463,0.2465,0.2464,0.2457,0.2474,0.2474,0.2495,0.2461,0.251,0.2513,0.2515,0.2549,0.2554,0.2559,0,0,0,0,0,0.2415,0.2421,0.2425,0.2428,0.2442,0.2458,0.246,0.2465,0.2464,0.2472,0.2476,0.2465,0.2489,0.2475,0.2475,0.2496,0.2509,0.2512,0.2515,0.2546,0.2553,0.2559,0,0,0,0,0,0,0.2408,0.2422,0.2426,0.2436,0.2451,0.2459,0.2468,0.2472,0.2481,0.2483,0.2477,0.2477,0.2503,0.2496,0.248,0.2521,0.2499,0.2502,0.2523,0.2529,0.2535,0.254,0.2461,0,0,0,0,0,0.241,0.2419,0.2434,0.2443,0.2452,0.2463,0.2471,0.2477,0.2486,0.249,0.2492,0.2499,0.2515,0.2518,0.2529,0.2545,0.2553,0.2561,0.2566,0.2571,0.2577,0.2614,0.2623,0.2526,0.2526,0.2525,0,0,0.2409,0.2419,0.2423,0.2443,0.2454,0.247,0.2467,0.2485,0.2501,0.2489,0.251,0.2519,0.2525,0.2549,0.2559,0.2544,0.2604,0.2574,0.2578,0.2582,0.2618,0.2627,0.2635,0.2527,0.2527,0.2527,0,0,0.2411,0.2424,0.2432,0.2448,0.2471,0.2481,0.249,0.2507,0.2518,0.2539,0.2542,0.2565,0.2577,0.2589,0.2596,0.2637,0.2635,0.2642,0.2666,0.2702,0.271,0.2717,0.2741,0.275,0.2639,0.2639,0.2639,0,0.241,0.2423,0.2438,0.2454,0.247,0.2488,0.2506,0.2522,0.2542,0.2559,0.2551,0.2597,0.2598,0.2637,0.2651,0.2649,0.2665,0.2639,0.2708,0.2716,0.2723,0.2745,0.2755,0.2641,0.2641,0.264,0.264,0,0.2419,0.2435,0.2444,0.247,0.249,0.251,0.2537,0.2561,0.2577,0.2593,0.2639,0.2647,0.2675,0.2681,0.2676,0.273,0.2725,0.2715,0.269,0.2735,0.2756,0.2765,0.2644,0.2643,0.2642,0.2642,0,0,0.24,0.2441,0.2444,0.2458,0.2502,0.2514,0.2558,0.2598,0.2628,0.2654,0.2694,0.2724,0.2736,0.2746,0.275,0.2774,0.2832,0.2765,0.2766,0.2785,0.291,0.2885,0.2893,0.2837,0.2839,0.284,0.2905,0,0.2402,0.2427,0.2454,0.2483,0.2499,0.2541,0.2577,0.2619,0.2656,0.2699,0.2731,0.2767,0.2759,0.2776,0.2805,0.2832,0.2859,0.2816,0.2868,0.2869,0.2839,0.2904,0.2676,0.2713,0.2914,0.2916,0.2917,0,0.2399,0.2417,0.2443,0.2488,0.2501,0.2524,0.259,0.2626,0.2701,0.2731,0.2785,0.2813,0.287,0.2846,0.2922,0.2897,0.291,0.2921,0.2923,0.2894,0.2862,0.2702,0.2722,0.2932,0.2931,0.293,0.2929,0,0.2364,0.2408,0.2425,0.244,0.2497,0.2523,0.256,0.2635,0.2679,0.2758,0.2802,0.2867,0.291,0.2945,0.2983,0.2959,0.3058,0.3024,0.3013,0.3011,0.2824,0.2803,0.3075,0.3075,0.3074,0.3074,0.3074,0,0.2349,0.2361,0.2407,0.2414,0.2444,0.2497,0.2545,0.2598,0.2685,0.2738,0.2814,0.2871,0.294,0.3006,0.3016,0.3058,0.309,0.3036,0.3036,0.2831,0.281,0.3001,0.2991,0.3077,0.3076,0.3076,0.3075,0,0.2306,0.2335,0.2355,0.2409,0.2426,0.2448,0.2531,0.2568,0.266,0.2737,0.2769,0.2899,0.2986,0.3048,0.3115,0.3104,0.3135,0.3135,0.2891,0.2861,0.3051,0.3043,0.3129,0.3129,0.3129,0.3129,0.3129,0,0.2284,0.2289,0.2337,0.2347,0.2369,0.2412,0.2443,0.2539,0.259,0.2744,0.278,0.2911,0.2981,0.3094,0.3097,0.3127,0.3158,0.2925,0.2839,0.3072,0.3062,0.3054,0.3046,0.2599,0.2594,0.2591,0.2588,0,0.2246,0.2264,0.228,0.2302,0.2325,0.2353,0.2411,0.2445,0.2562,0.2636,0.2745,0.282,0.295,0.2898,0.2961,0.2938,0.2903,0.2855,0.3167,0.2632,0.258,0.2568,0.2576,0.2556,0.2559,0.2561,0.2563,0.2564,0.2216,0.2216,0.2236,0.2249,0.2271,0.228,0.2275,0.2344,0.2403,0.2479,0.2619,0.265,0.2718,0.2707,0.2641,0.2593,0.279,0.2655,0.2661,0.2673,0.2612,0.2564,0.2525,0.2528,0.253,0.2532,0.2534,0,0.2169,0.2172,0.2181,0.2179,0.2162,0.2208,0.2236,0.2209,0.2224,0.2323,0.2389,0.2251,0.2248,0.2299,0.2193,0.222,0.2149,0.2116,0.1994,0.2031,0.2063,0.1965,0.1708,0.1705,0.1702,0.1699,0,0,0.2144,0.2124,0.2121,0.2065,0.2064,0.201,0.2002,0.198,0.2014,0.199,0.1989,0.216,0.2262,0.1953,0.1933,0.1798,0.1886,0.1726,0.2402,0.2297,0.2324,0.2405,0.2302,0,0,0,0,0]},{"header":{"parameterUnit":"m.s-1","parameterCategory":2,"la1":30.2991,"la2":30.254,"lo1":-89.0895,"lo2":-89.0444,"dy":0.0017,"dx":0.0017,"nx":28,"ny":28,"refTime":"2025-03-31T21:00:00:Z","depth":"2","parameterNumber":3,"parameterNumberName":"V-component_of_CURRENTS"},"data":[0,0,0,0,0,0,0,0,0,0,0,0,0,0,0,0,0,0,0,0,0,0,0,0,0,0,0,0,0,0,0,0,0,0,0,0,0,0,0,0,0,0,0,0,0,0,0,0,0,0,0,0,0,0,0,0,0,0,0.0072,0.0072,0,0.0021,0.0021,0.002,-0.0015,-0.0016,-0.0016,-0.0016,-0.0085,-0.0087,-0.0089,0,0,0,0,0,0,0,0,0,0,0,0,0,0.0098,0.0098,0.0072,0.0072,0.0071,0.0022,0.0021,0.002,-0.0015,-0.0016,-0.0016,-0.0016,-0.0085,-0.0087,-0.0089,0,0,0,0,0,0,0,0,0,0,0,0,0,0.0069,0.0098,0.0072,0.0049,0.0046,0.0022,0.0021,0.002,-0.0015,-0.0016,-0.0016,-0.0016,-0.0084,-0.0086,-0.0089,-0.0102,0,0,-0.0097,-0.0098,0,0,0,0,0,0,0,0,0.0071,0.0068,0.0053,0.0051,0.0048,0.0011,0.0004,-0.0021,-0.0015,0.0006,-0.0016,-0.0016,-0.0053,-0.0059,-0.007,-0.0105,-0.0108,-0.0097,-0.0099,-0.01,-0.0101,0,0,0,0,0,0,0,0.0073,0.007,0.005,0.0052,0.0049,0.0027,0.0023,-0.0001,-0.0024,0.0004,0.0002,-0.0001,-0.0055,-0.0068,-0.0072,-0.0109,-0.0097,-0.0099,-0.0101,-0.0102,-0.0149,-0.0149,0,0,0,0,0,0,0.0085,0.0072,0.0052,0.0049,0.0061,0.0027,0.0023,0.0021,-0.0023,-0.003,-0.0,-0.0002,-0.0063,-0.0069,-0.0075,-0.0073,-0.01,-0.0102,-0.0104,-0.015,-0.0149,-0.0149,0,0,0,0,0,0,0.0086,0.0084,0.0054,0.0061,0.0055,0.0028,0.0026,0.002,0.0012,-0.0026,-0.0033,-0.0002,-0.0063,-0.0071,-0.0087,-0.0077,-0.0104,-0.0106,-0.015,-0.0149,-0.0149,-0.0083,0,0,0,0,0,0,0.0087,0.0085,0.0088,0.0062,0.0056,0.0048,0.0026,0.002,0.0011,0.0009,-0.003,-0.0037,-0.0064,-0.0083,-0.009,-0.0081,-0.0108,-0.015,-0.015,-0.0149,-0.0086,-0.008,-0.0076,0,0,0,0,0,0.0088,0.0097,0.0088,0.0086,0.0061,0.0048,0.0043,0.0021,0.0012,0.0012,-0.0012,-0.0036,-0.0084,-0.0085,-0.0093,-0.0084,-0.0151,-0.015,-0.0149,-0.0088,-0.0081,-0.0076,0,0,0,0,0,0,0.011,0.0094,0.0084,0.0087,0.0072,0.0043,0.0042,0.0027,0.0007,0.0007,-0.0031,-0.004,-0.0051,-0.0077,-0.0077,-0.0097,-0.0122,-0.0122,-0.0072,-0.0066,-0.0062,-0.0047,-0.011,0,0,0,0,0,0.0118,0.0119,0.0099,0.0102,0.0097,0.0071,0.0063,0.005,0.0029,0.002,-0.0007,-0.0035,-0.0056,-0.0067,-0.0092,-0.0102,-0.0129,-0.0103,-0.0098,-0.0093,-0.0087,-0.012,-0.0117,-0.0147,-0.0147,-0.0147,0,0,0.0126,0.0118,0.0118,0.0106,0.0092,0.0096,0.0065,0.0061,0.0065,0.0016,0.0012,-0.0019,-0.0055,-0.0065,-0.0073,-0.0084,-0.0099,-0.0092,-0.0088,-0.0084,-0.0119,-0.0116,-0.0113,-0.0146,-0.0146,-0.0146,0,0,0.0151,0.0139,0.0151,0.0143,0.0132,0.0117,0.0121,0.0097,0.0087,0.0077,0.0046,0.0024,-0.0011,-0.0033,-0.0048,-0.0032,-0.0072,-0.0042,-0.0004,-0.0035,-0.0033,-0.0031,-0.0057,-0.0058,-0.0039,-0.0039,-0.0038,0,0.0163,0.0175,0.0152,0.0163,0.0164,0.0133,0.0149,0.0135,0.0109,0.0106,0.0085,0.0037,0.0005,-0.0004,0.0,-0.002,-0.0044,-0.0021,-0.0028,-0.0027,-0.0027,-0.0053,-0.0056,-0.0035,-0.0036,-0.0036,-0.0036,0,0.0195,0.0206,0.0213,0.0218,0.0215,0.0224,0.0206,0.0204,0.0186,0.0166,0.015,0.0102,0.0075,0.0059,0.0034,0.0026,0.0006,-0.0018,-0.004,-0.0019,-0.0049,-0.0053,-0.0031,-0.0032,-0.0033,-0.0034,0,0,0.0223,0.0235,0.0238,0.0255,0.0247,0.0253,0.0262,0.0261,0.0275,0.0234,0.024,0.0192,0.016,0.0141,0.0102,0.0072,0.0053,0.0034,0.0031,0.0016,-0.0012,-0.0023,-0.0028,0.0028,0.0028,0.0027,-0.0032,0,0.0258,0.0296,0.0289,0.0328,0.0348,0.0329,0.0346,0.0339,0.032,0.0316,0.0262,0.0248,0.0194,0.0183,0.0145,0.008,0.0047,0.0072,-0.0035,-0.0038,-0.0045,-0.0032,-0.0011,-0.0062,-0.0036,-0.0036,-0.0037,0,0.0296,0.0318,0.0361,0.0396,0.0403,0.0419,0.0441,0.0451,0.0433,0.0415,0.0382,0.0338,0.0295,0.0242,0.0139,0.0158,0.0081,0.0022,0.0017,-0.0018,-0.0055,-0.0081,-0.007,-0.0043,-0.0042,-0.0042,-0.0042,0,0.0334,0.0373,0.0412,0.042,0.0448,0.0467,0.0483,0.0481,0.0506,0.0476,0.0483,0.0412,0.0391,0.0283,0.0163,0.015,0.0046,0.0011,-0.0074,-0.0076,-0.0091,-0.0094,-0.0067,-0.0067,-0.0066,-0.0066,-0.0066,0,0.0376,0.0409,0.0434,0.0454,0.0514,0.0514,0.0566,0.0568,0.0584,0.0621,0.0539,0.0551,0.04,0.0324,0.0194,0.0059,0.0067,-0.0062,-0.009,-0.0068,-0.0067,-0.0079,-0.008,-0.0068,-0.0068,-0.0068,-0.0067,0,0.0411,0.0424,0.0476,0.0515,0.0532,0.0575,0.0634,0.0676,0.0673,0.0718,0.0717,0.0663,0.0563,0.0405,0.0239,0.0115,-0.0026,-0.008,-0.0039,-0.0061,-0.0136,-0.0133,-0.018,-0.0181,-0.0181,-0.0182,-0.0182,0,0.0432,0.046,0.0521,0.056,0.0578,0.0637,0.0688,0.0716,0.0768,0.0793,0.083,0.0756,0.0721,0.0475,0.0242,0.0017,-0.0019,-0.0119,-0.0146,-0.0124,-0.0147,-0.0143,-0.0138,-0.0142,-0.0142,-0.0143,-0.0143,0,0.0474,0.0492,0.0534,0.0614,0.0673,0.0747,0.082,0.0879,0.092,0.0963,0.1011,0.0988,0.0762,0.0547,0.0237,0.0081,-0.0083,-0.0128,-0.0117,-0.0113,-0.0093,-0.0114,-0.0111,-0.0144,-0.0144,-0.0144,-0.0143,-0.0143,0.0506,0.0543,0.0598,0.0675,0.075,0.0846,0.0912,0.1001,0.1098,0.1169,0.1148,0.1115,0.0864,0.0479,0.0204,-0.0089,-0.0077,-0.0186,-0.0185,-0.0183,-0.0164,-0.0146,-0.0203,-0.0203,-0.0203,-0.0204,-0.0204,0,0.0546,0.0587,0.0657,0.0747,0.0832,0.087,0.0998,0.1065,0.1184,0.1256,0.1293,0.1057,0.0819,0.0523,0.0093,-0.0161,-0.0182,-0.0244,-0.0217,-0.0213,-0.0211,-0.0192,-0.024,-0.0241,-0.0242,-0.0243,0,0,0.0567,0.0631,0.0662,0.0795,0.0867,0.0984,0.1059,0.1163,0.1242,0.1305,0.1301,0.1271,0.0917,0.06,0.0251,0.0002,-0.0047,-0.0046,0.0012,0.0089,0.0094,-0.0149,-0.0113,0,0,0,0,0]}],[{"header":{"parameterUnit":"m.s-1","parameterCategory":2,"la1":30.2991,"la2":30.254,"lo1":-89.0895,"lo2":-89.0444,"dy":0.0017,"dx":0.0017,"nx":28,"ny":28,"refTime":"2025-03-31T21:00:00:Z","depth":"4","parameterNumber":2,"parameterNumberName":"U-component_of_CURRENTS"},"data":[0,0,0,0,0,0,0,0,0,0,0,0,0,0,0,0,0,0,0,0,0,0,0,0,0,0,0,0,0,0,0,0,0,0,0,0,0,0,0,0,0,0,0,0,0,0,0,0,0,0,0,0,0,0,0,0,0,0,0.161,0.161,0,0.1659,0.1659,0.166,0.1705,0.1705,0.1706,0.1707,0.1766,0.1767,0.1767,0,0,0,0,0,0,0,0,0,0,0,0,0,0.1543,0.1544,0.161,0.1611,0.1611,0.1659,0.1659,0.166,0.1704,0.1705,0.1706,0.1707,0.1765,0.1766,0.1768,0,0,0,0,0,0,0,0,0,0,0,0,0,0.1578,0.1544,0.161,0.1641,0.1644,0.1659,0.1659,0.166,0.1704,0.1705,0.1706,0.1707,0.1765,0.1766,0.1768,0.1755,0,0,0.1772,0.1772,0,0,0,0,0,0,0,0,0.1576,0.158,0.1635,0.1639,0.1642,0.1678,0.1658,0.1693,0.1704,0.1679,0.1707,0.1708,0.1738,0.1741,0.1745,0.1757,0.176,0.1772,0.1773,0.1773,0.1774,0,0,0,0,0,0,0,0.1574,0.1579,0.1627,0.1636,0.164,0.1648,0.1654,0.1664,0.1701,0.1682,0.1685,0.1693,0.174,0.1744,0.1747,0.1761,0.1772,0.1773,0.1774,0.1774,0.1874,0.1875,0,0,0,0,0,0,0.1571,0.1576,0.1626,0.1629,0.1613,0.1649,0.1655,0.1664,0.1701,0.1708,0.1693,0.1695,0.1741,0.1746,0.175,0.1829,0.1773,0.1775,0.1775,0.1872,0.1874,0.1876,0,0,0,0,0,0,0.1569,0.1575,0.1624,0.1605,0.1612,0.1649,0.1658,0.1665,0.1705,0.1709,0.1716,0.1731,0.1742,0.1748,0.1793,0.1828,0.1775,0.1776,0.187,0.1872,0.1875,0.1929,0,0,0,0,0,0,0.1567,0.1574,0.1596,0.1605,0.1613,0.1655,0.1658,0.1665,0.1707,0.1712,0.1743,0.1748,0.1743,0.1791,0.1794,0.1829,0.1778,0.1867,0.1871,0.1874,0.1925,0.1933,0.194,0,0,0,0,0,0.1565,0.1583,0.1596,0.1603,0.1636,0.1656,0.1662,0.1689,0.1708,0.173,0.1757,0.1749,0.1815,0.1793,0.1797,0.1833,0.1866,0.187,0.1874,0.1921,0.1932,0.194,0,0,0,0,0,0,0.1567,0.1589,0.1604,0.1631,0.1654,0.1665,0.1693,0.1709,0.1747,0.1764,0.1767,0.1774,0.1829,0.1825,0.1801,0.1874,0.1841,0.1846,0.1876,0.1886,0.1893,0.1892,0.1779,0,0,0,0,0,0.1576,0.1599,0.1618,0.1645,0.166,0.1684,0.1703,0.1722,0.1748,0.1767,0.1789,0.1816,0.1841,0.186,0.1878,0.1914,0.1914,0.1942,0.195,0.1956,0.196,0.1994,0.2005,0.1889,0.1889,0.1889,0,0,0.1584,0.1602,0.1617,0.1648,0.1671,0.1694,0.1699,0.1739,0.1768,0.1766,0.1825,0.1846,0.1858,0.1902,0.1926,0.1907,0.1992,0.1961,0.1967,0.1966,0.1999,0.201,0.202,0.1892,0.1892,0.1891,0,0,0.1599,0.1631,0.1652,0.1674,0.1715,0.1728,0.1747,0.1781,0.1811,0.1859,0.1872,0.1915,0.1952,0.1967,0.1977,0.2039,0.2033,0.2055,0.2091,0.2125,0.2134,0.2142,0.2161,0.2171,0.2056,0.2056,0.2056,0,0.1613,0.1638,0.1662,0.1687,0.1712,0.1747,0.1774,0.1804,0.1851,0.1881,0.189,0.1967,0.1979,0.2028,0.2054,0.2056,0.2072,0.2052,0.2134,0.2142,0.215,0.2167,0.2177,0.2059,0.2059,0.2059,0.2059,0,0.1629,0.1666,0.1683,0.1724,0.1753,0.1787,0.1824,0.1871,0.1913,0.1939,0.2014,0.2037,0.2081,0.2097,0.2094,0.216,0.2153,0.214,0.2106,0.2164,0.2179,0.2188,0.2064,0.2063,0.2062,0.2061,0,0,0.1616,0.1682,0.1692,0.1719,0.1779,0.1798,0.1861,0.1915,0.1962,0.2019,0.2077,0.213,0.2156,0.217,0.2182,0.2211,0.2279,0.2206,0.2206,0.2218,0.2355,0.2216,0.2212,0.2287,0.2289,0.229,0.2345,0,0.1627,0.1673,0.1707,0.1761,0.1786,0.1843,0.1891,0.195,0.2007,0.2072,0.2119,0.2178,0.2179,0.2214,0.2248,0.2276,0.2306,0.2265,0.2303,0.2304,0.2167,0.2219,0.2296,0.2351,0.2354,0.2355,0.2356,0,0.1625,0.1659,0.1709,0.1778,0.1797,0.1839,0.1927,0.1977,0.2071,0.2119,0.2191,0.223,0.2302,0.2287,0.2366,0.2346,0.2361,0.237,0.2372,0.2226,0.2181,0.2282,0.2372,0.2371,0.237,0.2369,0.2368,0,0.1583,0.1657,0.1699,0.1723,0.1806,0.1853,0.1907,0.1999,0.2052,0.216,0.2211,0.2292,0.2349,0.2387,0.2425,0.2409,0.2494,0.2467,0.2353,0.2343,0.2428,0.2418,0.2517,0.2517,0.2517,0.2517,0.2517,0,0.1558,0.1597,0.169,0.171,0.177,0.1839,0.1915,0.1983,0.2086,0.2143,0.2239,0.2289,0.2382,0.244,0.2453,0.2432,0.2522,0.2365,0.235,0.245,0.2442,0.2434,0.2424,0.2519,0.2518,0.2518,0.2518,0,0.15,0.1563,0.1616,0.1715,0.1751,0.1797,0.1914,0.196,0.2074,0.2154,0.2195,0.2317,0.2383,0.2451,0.2515,0.2454,0.2452,0.2422,0.2534,0.2524,0.2271,0.2263,0.2288,0.2283,0.228,0.2276,0.2274,0,0.1469,0.1492,0.1606,0.164,0.1692,0.1772,0.182,0.1941,0.1989,0.2145,0.2168,0.2287,0.2348,0.2327,0.2408,0.2421,0.2395,0.2375,0.2308,0.2265,0.2249,0.2247,0.2244,0.2268,0.2267,0.2266,0.2265,0,0.1409,0.1468,0.1512,0.1582,0.1642,0.1694,0.1777,0.1796,0.1927,0.205,0.2086,0.2121,0.2192,0.2233,0.2266,0.227,0.2374,0.2335,0.2342,0.2279,0.2241,0.2228,0.223,0.2252,0.2254,0.2255,0.2256,0,0.1371,0.1387,0.1456,0.1504,0.1574,0.159,0.1643,0.1691,0.1751,0.1916,0.1924,0.2046,0.2164,0.2156,0.2185,0.2181,0.2142,0.2063,0.2083,0.2099,0.2012,0.1934,0.1842,0,0,0,0,0,0.1323,0.1328,0.1368,0.1405,0.1468,0.151,0.16,0.1655,0.1778,0.1754,0.1832,0.1884,0.1923,0.1992,0.195,0.2109,0.2157,0.2051,0.2077,0.218,0.2195,0.211,0,0,0,0,0,0,0.1288,0.1326,0.1333,0.1313,0.1322,0.1373,0.1426,0.1509,0.1502,0.1637,0.1669,0.1776,0.1847,0.1931,0.1917,0.1938,0.1915,0.2135,0.213,0.2171,0.2185,0.2197,0.2115,0,0,0,0,0]},{"header":{"parameterUnit":"m.s-1","parameterCategory":2,"la1":30.2991,"la2":30.254,"lo1":-89.0895,"lo2":-89.0444,"dy":0.0017,"dx":0.0017,"nx":28,"ny":28,"refTime":"2025-03-31T21:00:00:Z","depth":"4","parameterNumber":3,"parameterNumberName":"V-component_of_CURRENTS"},"data":[0,0,0,0,0,0,0,0,0,0,0,0,0,0,0,0,0,0,0,0,0,0,0,0,0,0,0,0,0,0,0,0,0,0,0,0,0,0,0,0,0,0,0,0,0,0,0,0,0,0,0,0,0,0,0,0,0,0,0.0054,0.0054,0,0.002,0.0019,0.0019,-0.001,-0.0011,-0.0011,-0.0011,-0.0067,-0.0068,-0.007,0,0,0,0,0,0,0,0,0,0,0,0,0,0.007,0.007,0.0054,0.0054,0.0054,0.002,0.0019,0.0019,-0.001,-0.0011,-0.0011,-0.0011,-0.0067,-0.0068,-0.007,0,0,0,0,0,0,0,0,0,0,0,0,0,0.0051,0.007,0.0055,0.0036,0.0034,0.002,0.0019,0.0018,-0.001,-0.0011,-0.0011,-0.0011,-0.0066,-0.0068,-0.007,-0.0076,0,0,-0.0076,-0.0077,0,0,0,0,0,0,0,0,0.0052,0.005,0.0039,0.0038,0.0035,0.001,0.0004,-0.0014,-0.001,0.0005,-0.0011,-0.0011,-0.0042,-0.0046,-0.0054,-0.0079,-0.0081,-0.0076,-0.0077,-0.0078,-0.0079,0,0,0,0,0,0,0,0.0054,0.0051,0.0039,0.0039,0.0037,0.0021,0.0018,0.0,-0.0018,0.0004,0.0002,0.0,-0.0044,-0.0052,-0.0055,-0.0082,-0.0076,-0.0078,-0.0079,-0.008,-0.0114,-0.0114,0,0,0,0,0,0,0.0062,0.0053,0.0041,0.0038,0.0045,0.0021,0.0018,0.0017,-0.0017,-0.0022,0.0001,-0.0001,-0.0048,-0.0053,-0.0057,-0.0056,-0.0078,-0.008,-0.0081,-0.0115,-0.0114,-0.0114,0,0,0,0,0,0,0.0063,0.0061,0.0042,0.0046,0.0042,0.0022,0.0021,0.0017,0.001,-0.0019,-0.0025,-0.0001,-0.0049,-0.0055,-0.0067,-0.0059,-0.0081,-0.0083,-0.0115,-0.0115,-0.0114,-0.0061,0,0,0,0,0,0,0.0063,0.0062,0.0065,0.0046,0.0043,0.0038,0.0021,0.0016,0.001,0.0008,-0.0023,-0.0028,-0.0049,-0.0064,-0.0069,-0.0062,-0.0084,-0.0115,-0.0115,-0.0114,-0.0063,-0.0059,-0.0055,0,0,0,0,0,0.0064,0.0071,0.0065,0.0064,0.0048,0.0039,0.0035,0.0018,0.0011,0.0011,-0.0008,-0.0027,-0.0065,-0.0065,-0.0071,-0.0065,-0.0116,-0.0115,-0.0114,-0.0065,-0.006,-0.0055,0,0,0,0,0,0,0.0079,0.0068,0.0062,0.0065,0.0055,0.0034,0.0034,0.0023,0.0008,0.0007,-0.0023,-0.003,-0.0039,-0.0059,-0.0059,-0.0074,-0.0094,-0.0094,-0.0054,-0.0049,-0.0046,-0.0035,-0.0086,0,0,0,0,0,0.0085,0.0087,0.0073,0.0076,0.0073,0.0055,0.0049,0.0039,0.0024,0.0017,-0.0004,-0.0026,-0.0041,-0.005,-0.0069,-0.0076,-0.01,-0.0077,-0.0073,-0.0069,-0.0065,-0.0093,-0.0091,-0.0112,-0.0112,-0.0112,0,0,0.0091,0.0086,0.0087,0.008,0.007,0.0074,0.005,0.0047,0.0051,0.0014,0.0011,-0.0013,-0.004,-0.0047,-0.0053,-0.0063,-0.0076,-0.0068,-0.0065,-0.0062,-0.0092,-0.009,-0.0089,-0.0112,-0.0112,-0.0112,0,0,0.0108,0.0102,0.011,0.0106,0.0098,0.0089,0.0091,0.0074,0.0067,0.0061,0.0037,0.0021,-0.0006,-0.0022,-0.0033,-0.002,-0.0054,-0.0027,0.0003,-0.0025,-0.0023,-0.0022,-0.0048,-0.005,-0.0025,-0.0024,-0.0024,0,0.0116,0.0126,0.0111,0.0119,0.0122,0.01,0.0113,0.0104,0.0085,0.0084,0.0067,0.0032,0.0007,0.0002,0.0006,-0.001,-0.0032,-0.0011,-0.0019,-0.0019,-0.0018,-0.0045,-0.0048,-0.0022,-0.0022,-0.0022,-0.0023,0,0.0138,0.0148,0.0153,0.0159,0.0159,0.0166,0.0156,0.0156,0.0144,0.013,0.0119,0.0083,0.0063,0.0051,0.0032,0.0025,0.0007,-0.0011,-0.0029,-0.0013,-0.0042,-0.0046,-0.0018,-0.0019,-0.002,-0.002,0,0,0.0153,0.0167,0.017,0.0184,0.0183,0.0189,0.0199,0.0201,0.0212,0.0183,0.0188,0.0154,0.013,0.0115,0.0086,0.0061,0.0042,0.003,0.0027,0.0009,-0.0019,-0.0027,-0.0032,0.0022,0.0022,0.0021,-0.0039,0,0.0176,0.0206,0.0205,0.0237,0.0253,0.0245,0.0261,0.026,0.0248,0.0246,0.0206,0.0197,0.0156,0.0149,0.0118,0.0063,0.0034,0.006,-0.0036,-0.0038,-0.0044,-0.0036,0.002,-0.0042,-0.0043,-0.0044,-0.0044,0,0.0199,0.0218,0.0253,0.0287,0.0294,0.031,0.0334,0.0345,0.0335,0.0323,0.0299,0.0266,0.0232,0.0192,0.0104,0.0122,0.0058,0.0008,0.0005,-0.0023,-0.0053,-0.0063,-0.0051,-0.0051,-0.005,-0.005,-0.0049,0,0.022,0.0254,0.0288,0.0296,0.0326,0.0346,0.0364,0.0368,0.039,0.0371,0.0377,0.0322,0.0303,0.0216,0.0116,0.011,0.0013,-0.001,-0.008,-0.0082,-0.008,-0.0081,-0.0077,-0.0077,-0.0077,-0.0077,-0.0076,0,0.0243,0.0271,0.0303,0.032,0.0371,0.038,0.0426,0.0432,0.0449,0.0477,0.042,0.0423,0.0308,0.0241,0.0136,0.0022,0.0026,-0.0073,-0.0097,-0.0057,-0.0054,-0.0083,-0.0083,-0.0079,-0.0078,-0.0078,-0.0078,0,0.0258,0.0276,0.032,0.0362,0.0381,0.0418,0.0477,0.051,0.0516,0.0549,0.055,0.0504,0.0414,0.0292,0.0152,0.006,-0.0057,-0.0102,-0.0043,-0.0063,-0.014,-0.0137,-0.0184,-0.0185,-0.0185,-0.0186,-0.0186,0,0.0267,0.029,0.0351,0.0384,0.0405,0.046,0.0504,0.0539,0.0575,0.0597,0.0618,0.0555,0.05,0.0309,0.0166,-0.0032,-0.0067,-0.0133,-0.0145,-0.0132,-0.0151,-0.0146,-0.0142,-0.0187,-0.0187,-0.0187,-0.0188,0,0.0284,0.0306,0.0342,0.041,0.0463,0.0527,0.0588,0.0624,0.0665,0.0675,0.0676,0.0581,0.048,0.032,0.0169,0.0022,-0.0092,-0.014,-0.014,-0.0153,-0.0137,-0.0154,-0.0149,-0.019,-0.019,-0.0189,-0.0189,0,0.0296,0.0323,0.0371,0.0433,0.0503,0.0571,0.0605,0.0654,0.0696,0.0722,0.072,0.061,0.0554,0.0349,0.0208,0.0066,0.0019,-0.004,-0.0046,-0.0046,0.0006,0.0048,0.0035,0,0,0,0,0,0.0307,0.0334,0.039,0.0457,0.053,0.0572,0.0654,0.0683,0.0725,0.0735,0.0732,0.0638,0.0443,0.0366,0.0223,0.0172,-0.0021,-0.0004,-0.0096,-0.0202,-0.0199,-0.0164,0,0,0,0,0,0,0.031,0.0358,0.0384,0.0468,0.0517,0.06,0.0655,0.0686,0.0695,0.0715,0.0623,0.0585,0.0401,0.0524,0.0215,0.0172,0.0089,-0.0088,-0.0092,-0.0203,-0.0201,-0.0199,-0.0162,0,0,0,0,0]}]]